Miscellaneous Local Product
Issued by NWS North Platte, NE

Home | Current Version | Previous Version | Text Only | Print | Product List | Glossary On
Versions: 1 2 3 4 5 6 7 8 9 10 11 12 13 14 15 16 17 18 19 20 21 22 23 24 25 26 27 28 29 30 31 32 33 34 35 36 37 38 39 40 41 42 43 44 45 46 47 48 49 50
000
AXUS43 KLBF 012210
MISLBF


WESTERN AND NORTH CENTRAL NEBRASKA HOURLY WEATHER ROUNDUP
NATIONAL WEATHER SERVICE NORTH PLATTE NE
500 PM CDT FRI AUG 01 2014

***STATIONS NOT REPORTING VARIABLES SUCH AS SKY/WEATHER OR
PRESSURE ARE PROVIDED BY THE NEBRASKA DEPARTMENT OF
ROADS...RAWS...AND APRS NETWORKS...AND ARE NOT UNDER
NATIONAL WEATHER SERVICE QUALITY CONTROL***

...OBSERVATIONS IN AND NEAR THE EASTERN PANHANDLE OF NEBRASKA...

CITY           SKY/WX    TMP DP  RH WIND       PRES   REMARKS
PINE RIDGE     MOSUNNY   83  45  26 NE22G32   30.09S HAZE
CHADRON        MOSUNNY   95  37  13 W13       30.07F HX  90
ALLIANCE       MOSUNNY   86  37  17 SE8       30.14F
SIDNEY         PTSUNNY   85  39  19 SE12      30.19S
RUSHVILLE        N/A     98  31   9 E7          N/A  HX  92
CRESCENT LAKE    N/A     90  45  20 S6          N/A
BIG SPRINGS      N/A     87  51  28 E3          N/A
$$

...OBSERVATIONS IN NORTH CENTRAL NEBRASKA...

CITY           SKY/WX    TMP DP  RH WIND       PRES   REMARKS
VALENTINE      SUNNY     93  46  19 VRB3      30.06F
THEDFORD       SUNNY     91  49  23 E5        30.10S
AINSWORTH      SUNNY     87  56  35 E10       30.08F
O`NEILL        SUNNY     84  56  38 E8        30.10F
ORD            SUNNY     84  55  36 SE7       30.09F
BROKEN BOW     MOSUNNY   88  59  37 SE9       30.10F
SPRINGVIEW       N/A     89  60  37 SE7         N/A
SARGENT          N/A     85  58  40 CALM        N/A
COMSTOCK         N/A     91  60  35 E5          N/A  HX  90
CHAMBERS         N/A     87  57  35 MISG        N/A
EWING            N/A     81  58  45 E3          N/A
$$

...OBSERVATIONS IN SOUTHWEST NEBRASKA AND FAR NORTHEAST COLORADO...

CITY           SKY/WX    TMP DP  RH WIND       PRES   REMARKS
WRAY             N/A     86  44  22 CALM      30.15S
HOLYOKE        FAIR      88  46  23 SE9       30.16S
IMPERIAL       SUNNY     89  41  18 NE6       30.13F
OGALLALA       SUNNY     89  44  21 SE6       30.12F
NORTH PLATTE   MOSUNNY   87  49  26 CALM      30.10F
MCCOOK         SUNNY     90  48  23 SE5       30.10F
LEXINGTON      SUNNY     87  56  34 SE7       30.10F
PAXTON           N/A     90  48  23 CALM        N/A
BRADY            N/A     88  56  33 N3          N/A
GOTHENBURG       N/A     89  52  27 E3          N/A
CALLAWAY         N/A     90  70  51 E6          N/A  HX  95
$$

...SOME WEATHER OBSERVATIONS FROM AROUND THE REGION...

CITY           SKY/WX    TMP DP  RH WIND       PRES   REMARKS
DENVER         PTSUNNY   80  40  23 SE13G18   30.26S
LARAMIE        SUNNY     73  36  25 SE12G21   30.35S
CHEYENNE       MOSUNNY   77  44  30 S15       30.30S
SCOTTSBLUFF    SUNNY     89  38  16 E9        30.15F
RAPID CITY     PTSUNNY   79  51  37 SE6       30.07F
PIERRE         SUNNY     91  56  30 E17       29.99F
WINNER         FAIR      93  50  23 SE7       30.04F HX  90
SIOUX FALLS    MOSUNNY   82  59  45 E5        30.09S
OMAHA          MOSUNNY   83  61  47 NE10      30.08S
GRAND ISLAND   SUNNY     83  56  39 NE12G17   30.11S
KANSAS CITY    PTSUNNY   84  61  45 NE6       30.05F
WICHITA        MOSUNNY   90  54  29 N9        30.02S
HAYS           SUNNY     91  52  25 N13       30.07F
LIBERAL        MOSUNNY   86  50  28 NE7       30.14S
GOODLAND       MOSUNNY   86  47  25 SE10      30.16S
$$



USA.gov is the U.S. government's official web portal to all federal, state and local government web resources and services.